Вернуться в каталог

STARLINK-36925

АктивенСвязьVLEO
NORAD 68042·PAYLOAD·🇺🇸 United States

Запущен Mar 2, 2026 с Vandenberg Space Force Base

Loading…

Ближайшие Пролёты (ближайшие 24 часа)

TLE

СвежийSource: CelesTrak SupGP

Эпоха: Sep 14, 2026, 16:04 UTC

1 68042C 26041C   26257.66993056 -.00024996  00000+0 -73854-3 0  2577
2 68042  53.1575 249.1164 0001195  82.9026 287.0643 15.34402310    12

Отслеживайте STARLINK-36925 в реальном времени с AllMySat

Download on the App Store